K8MUD Weather Reports


Display with metric or nautical units.
time (UTC)temp
F
wind
direction
speed
MPH
gust
MPH
rain 1hr
in
rain 24hr
in
rain mn
in
humidity
%
barometer
mb
20260906031538 65 350 1.0 4.0 0.00 0.00 0.00 80 1016.3
20260906031503 65 350 1.0 4.0 0.00 0.00 0.00 80 1016.3
20260906031038 65 352 1.0 4.0 0.00 0.00 0.00 79 1016.3
20260906031003 65 352 1.0 4.0 0.00 0.00 0.00 79 1016.3
20260906030538 65 358 2.0 4.0 0.00 0.00 0.00 79 1016.4
20260906030504 65 358 2.0 4.0 0.00 0.00 0.00 79 1016.4
20260906030038 65 6 1.0 4.0 0.00 0.00 0.00 79 1016.4
20260906030024 65 6 1.0 4.0 0.00 0.00 0.00 79 1016.4
20260906025538 65 14 1.0 4.0 0.00 0.00 0.00 78 1016.3
20260906025503 65 14 1.0 4.0 0.00 0.00 0.00 78 1016.3
20260906025038 65 22 1.0 4.0 0.00 0.00 0.00 78 1016.4
20260906025003 65 22 1.0 4.0 0.00 0.00 0.00 78 1016.4
20260906024538 66 32 1.0 5.0 0.00 0.00 0.00 77 1016.4
20260906024506 66 32 1.0 5.0 0.00 0.00 0.00 77 1016.4
20260906024038 66 25 1.0 5.0 0.00 0.00 0.00 77 1016.4
20260906024003 66 25 1.0 5.0 0.00 0.00 0.00 77 1016.4
20260906023537 66 1 1.0 4.0 0.00 0.00 0.00 77 1016.5
20260906023503 66 1 1.0 4.0 0.00 0.00 0.00 77 1016.5
20260906023037 66 358 1.0 4.0 0.00 0.00 0.00 77 1016.4
20260906023003 66 358 1.0 4.0 0.00 0.00 0.00 77 1016.4
20260906022537 66 350 1.0 4.0 0.00 0.00 0.00 76 1016.5
20260906022503 66 350 1.0 4.0 0.00 0.00 0.00 76 1016.5
20260906022037 66 342 1.0 4.0 0.00 0.00 0.00 76 1016.6
20260906022004 66 342 1.0 4.0 0.00 0.00 0.00 76 1016.6
20260906021537 66 342 1.0 5.0 0.00 0.00 0.00 76 1016.6
20260906021503 66 342 1.0 5.0 0.00 0.00 0.00 76 1016.6
20260906021037 66 343 1.0 5.0 0.00 0.00 0.00 76 1016.5
20260906021003 66 343 1.0 5.0 0.00 0.00 0.00 76 1016.5
20260906020537 66 342 0.0 5.0 0.00 0.00 0.00 76 1016.5
20260906020503 66 342 0.0 5.0 0.00 0.00 0.00 76 1016.5
20260906020037 67 338 0.0 2.0 0.00 0.00 0.00 75 1016.4
20260906020004 67 338 0.0 2.0 0.00 0.00 0.00 75 1016.4
20260906015537 67 337 0.0 3.0 0.00 0.00 0.00 75 1016.4
20260906015503 67 337 0.0 3.0 0.00 0.00 0.00 75 1016.4
20260906015037 67 337 0.0 3.0 0.00 0.00 0.00 74 1016.5
20260906015006 67 337 0.0 3.0 0.00 0.00 0.00 74 1016.5
20260906014537 67 338 0.0 4.0 0.00 0.00 0.00 74 1016.5
20260906014503 67 338 0.0 4.0 0.00 0.00 0.00 74 1016.5
20260906014037 68 338 1.0 4.0 0.00 0.00 0.00 74 1016.4
20260906014003 68 338 1.0 4.0 0.00 0.00 0.00 74 1016.4
20260906013537 68 339 2.0 6.0 0.00 0.00 0.00 74 1016.2
20260906013506 68 340 2.0 6.0 0.00 0.00 0.00 74 1016.2
20260906013037 68 6 2.0 6.0 0.00 0.00 0.00 73 1016.2
20260906013024 68 6 2.0 6.0 0.00 0.00 0.00 73 1016.2
20260906012537 68 35 1.0 6.0 0.00 0.00 0.00 73 1016.1
20260906012524 68 36 1.0 6.0 0.00 0.00 0.00 73 1016.1
20260906012037 68 2 0.0 5.0 0.00 0.00 0.00 72 1016.0
20260906012007 68 2 0.0 5.0 0.00 0.00 0.00 72 1016.0
20260906011537 69 353 1.0 5.0 0.00 0.00 0.00 72 1015.8
20260906011503 69 353 1.0 5.0 0.00 0.00 0.00 72 1015.8
20260906011036 69 354 1.0 6.0 0.00 0.00 0.00 72 1015.7
20260906011003 69 354 1.0 6.0 0.00 0.00 0.00 72 1015.7
20260906010536 69 28 2.0 6.0 0.00 0.00 0.00 71 1015.7
20260906010503 69 28 2.0 6.0 0.00 0.00 0.00 71 1015.7
20260906010036 69 43 1.0 7.0 0.00 0.00 0.00 71 1015.6
20260906010003 69 43 1.0 7.0 0.00 0.00 0.00 71 1015.6
20260906005536 70 356 1.0 7.0 0.00 0.00 0.00 71 1015.6
20260906005503 70 355 1.0 7.0 0.00 0.00 0.00 71 1015.6
20260906005036 70 338 1.0 5.0 0.00 0.00 0.00 70 1015.5
20260906005003 70 338 1.0 5.0 0.00 0.00 0.00 70 1015.5
20260906004536 70 11 1.0 5.0 0.00 0.00 0.00 70 1015.5
20260906004503 70 12 1.0 5.0 0.00 0.00 0.00 70 1015.5
20260906004006 70 50 1.0 3.0 0.00 0.00 0.00 69 1015.5
20260906004001 70 50 1.0 3.0 0.00 0.00 0.00 69 1015.5
20260906003506 71 64 1.0 3.0 0.00 0.00 0.00 68 1015.6
20260906003501 71 64 1.0 3.0 0.00 0.00 0.00 68 1015.6
20260906003006 71 74 1.0 3.0 0.00 0.00 0.00 67 1015.5
20260906003004 71 75 1.0 3.0 0.00 0.00 0.00 67 1015.5
20260906002506 71 80 1.0 6.0 0.00 0.00 0.00 67 1015.5
20260906002501 71 80 1.0 6.0 0.00 0.00 0.00 67 1015.5
20260906002006 71 94 1.0 6.0 0.00 0.00 0.00 66 1015.5
20260906002001 71 94 1.0 6.0 0.00 0.00 0.00 66 1015.5
20260906001522 72 107 1.0 4.0 0.00 0.00 0.00 65 1015.3
20260906001506 72 104 1.0 4.0 0.00 0.00 0.00 65 1015.5
20260906001006 72 94 2.0 4.0 0.00 0.00 0.00 65 1015.5
20260906001002 72 94 2.0 4.0 0.00 0.00 0.00 65 1015.5
20260906000506 72 68 3.0 10.0 0.00 0.00 0.00 64 1015.4
20260906000501 72 68 3.0 10.0 0.00 0.00 0.00 64 1015.4
20260906000022 72 62 2.0 10.0 0.00 0.00 0.00 62 1015.4
20260906000005 72 61 2.0 10.0 0.00 0.00 0.00 62 1015.4
20260905235505 73 78 2.0 6.0 0.00 0.00 0.00 64 1015.4
20260905235501 73 78 2.0 6.0 0.00 0.00 0.00 64 1015.4
20260905235005 73 92 2.0 6.0 0.00 0.00 0.00 64 1015.3
20260905235001 73 93 2.0 6.0 0.00 0.00 0.00 64 1015.3
20260905234505 73 82 1.0 6.0 0.00 0.00 0.00 64 1015.4
20260905234005 74 58 1.0 4.0 0.00 0.00 0.00 64 1015.4
20260905234001 74 58 1.0 4.0 0.00 0.00 0.00 64 1015.4
20260905233523 74 52 2.0 9.0 0.00 0.00 0.00 63 1015.3
20260905233505 74 54 2.0 9.0 0.00 0.00 0.00 63 1015.4
20260905233022 74 61 2.0 9.0 0.00 0.00 0.00 63 1015.4
20260905233005 74 70 2.0 7.0 0.00 0.00 0.00 63 1015.5
20260905232505 74 80 3.0 7.0 0.00 0.00 0.00 64 1015.4
20260905232501 74 80 3.0 7.0 0.00 0.00 0.00 64 1015.4
20260905232005 74 72 3.0 7.0 0.00 0.00 0.00 64 1015.5
20260905232002 74 72 3.0 7.0 0.00 0.00 0.00 64 1015.5
20260905231505 75 68 3.0 10.0 0.00 0.00 0.00 63 1015.3
20260905231501 75 68 3.0 10.0 0.00 0.00 0.00 63 1015.3
20260905231005 75 70 3.0 10.0 0.00 0.00 0.00 63 1015.3
20260905230505 75 76 3.0 9.0 0.00 0.00 0.00 63 1015.2
20260905230502 75 71 3.0 9.0 0.00 0.00 0.00 63 1015.2
20260905230005 76 78 3.0 9.0 0.00 0.00 0.00 63 1015.2
20260905230001 76 78 2.0 9.0 0.00 0.00 0.00 63 1015.2
20260905225505 76 83 2.0 4.0 0.00 0.00 0.00 63 1015.2
20260905225501 76 83 2.0 4.0 0.00 0.00 0.00 63 1015.2
20260905225005 76 85 2.0 7.0 0.00 0.00 0.00 63 1015.1
20260905225001 76 85 2.0 7.0 0.00 0.00 0.00 63 1015.1
20260905224505 76 77 3.0 7.0 0.00 0.00 0.00 62 1015.0
20260905224502 76 79 3.0 7.0 0.00 0.00 0.00 62 1015.0
20260905224005 76 69 3.0 7.0 0.00 0.00 0.00 62 1015.0
20260905224001 76 69 3.0 7.0 0.00 0.00 0.00 62 1015.0
20260905223522 76 73 3.0 7.0 0.00 0.00 0.00 62 1014.9
20260905223504 76 76 3.0 8.0 0.00 0.00 0.00 61 1014.9
20260905223004 77 77 3.0 8.0 0.00 0.00 0.00 61 1014.9
20260905223002 77 80 3.0 8.0 0.00 0.00 0.00 61 1014.9
20260905222504 77 72 3.0 8.0 0.00 0.00 0.00 61 1015.0
20260905222502 77 73 2.0 8.0 0.00 0.00 0.00 61 1015.0
20260905222004 77 64 2.0 8.0 0.00 0.00 0.00 60 1014.8
20260905222001 77 63 2.0 8.0 0.00 0.00 0.00 61 1015.0
20260905221504 77 67 2.0 8.0 0.00 0.00 0.00 60 1014.9
20260905221501 77 67 2.0 8.0 0.00 0.00 0.00 60 1014.9
20260905221004 78 80 3.0 9.0 0.00 0.00 0.00 61 1014.9
20260905221002 78 79 3.0 9.0 0.00 0.00 0.00 61 1014.9
20260905220504 78 85 3.0 9.0 0.00 0.00 0.00 60 1014.9
20260905220501 78 84 3.0 9.0 0.00 0.00 0.00 60 1014.8
20260905220022 78 82 3.0 10.0 0.00 0.00 0.00 60 1014.8
20260905220004 78 80 3.0 10.0 0.00 0.00 0.00 60 1014.9
20260905215504 78 83 3.0 10.0 0.00 0.00 0.00 60 1014.9
20260905215023 78 96 3.0 7.0 0.00 0.00 0.00 59 1014.8
20260905215004 78 93 3.0 7.0 0.00 0.00 0.00 59 1014.9
20260905214504 78 85 3.0 10.0 0.00 0.00 0.00 59 1014.8
20260905214501 78 87 3.0 10.0 0.00 0.00 0.00 59 1014.9
20260905214004 79 80 3.0 10.0 0.00 0.00 0.00 57 1014.9
20260905214001 79 76 3.0 10.0 0.00 0.00 0.00 56 1014.8
20260905213504 79 80 3.0 10.0 0.00 0.00 0.00 58 1014.7
20260905213502 79 81 3.0 10.0 0.00 0.00 0.00 57 1014.7
20260905213003 79 80 2.0 6.0 0.00 0.00 0.00 58 1014.7
20260905213001 79 79 2.0 7.0 0.00 0.00 0.00 59 1014.7
20260905212504 79 81 3.0 9.0 0.00 0.00 0.00 57 1014.7
20260905212023 79 87 3.0 9.0 0.00 0.00 0.00 58 1014.7
20260905212003 79 84 3.0 9.0 0.00 0.00 0.00 57 1014.7
20260905211503 79 77 3.0 9.0 0.00 0.00 0.00 56 1014.7
20260905211501 79 77 2.0 7.0 0.00 0.00 0.00 56 1014.7
20260905211003 80 76 3.0 9.0 0.00 0.00 0.00 58 1014.7
20260905210522 80 79 3.0 9.0 0.00 0.00 0.00 56 1014.6
20260905210503 80 83 3.0 8.0 0.00 0.00 0.00 57 1014.5
20260905210003 80 78 2.0 8.0 0.00 0.00 0.00 58 1014.6
20260905210001 80 79 2.0 8.0 0.00 0.00 0.00 56 1014.6
20260905205503 80 69 2.0 8.0 0.00 0.00 0.00 56 1014.5
20260905205501 80 71 2.0 8.0 0.00 0.00 0.00 56 1014.5
20260905205003 80 84 3.0 8.0 0.00 0.00 0.00 57 1014.4
20260905204522 80 92 2.0 8.0 0.00 0.00 0.00 58 1014.5
20260905204503 80 92 2.0 8.0 0.00 0.00 0.00 58 1014.5
20260905204003 80 85 3.0 7.0 0.00 0.00 0.00 57 1014.4
20260905203523 80 83 2.0 6.0 0.00 0.00 0.00 57 1014.5
20260905203503 80 84 2.0 6.0 0.00 0.00 0.00 57 1014.5
20260905203003 80 92 2.0 9.0 0.00 0.00 0.00 59 1014.6
20260905203001 80 89 2.0 9.0 0.00 0.00 0.00 59 1014.6
20260905202503 80 92 3.0 9.0 0.00 0.00 0.00 60 1014.5
20260905202501 80 94 3.0 9.0 0.00 0.00 0.00 60 1014.5
20260905202003 80 89 2.0 8.0 0.00 0.00 0.00 60 1014.5
20260905201505 80 88 2.0 8.0 0.00 0.00 0.00 60 1014.6
20260905201502 80 91 2.0 8.0 0.00 0.00 0.00 60 1014.7
20260905201002 80 92 3.0 8.0 0.00 0.00 0.00 60 1014.6
20260905200523 80 91 3.0 8.0 0.00 0.00 0.00 62 1014.6
20260905200502 80 89 3.0 8.0 0.00 0.00 0.00 61 1014.6
20260905200026 80 88 3.0 9.0 0.00 0.00 0.00 62 1014.5
20260905200002 80 87 3.0 9.0 0.00 0.00 0.00 62 1014.5
20260905195502 80 86 3.0 9.0 0.00 0.00 0.00 62 1014.6
20260905195002 80 85 3.0 8.0 0.00 0.00 0.00 63 1014.5
20260905194502 80 87 4.0 8.0 0.00 0.00 0.00 62 1014.4
20260905194026 80 90 3.0 8.0 0.00 0.00 0.00 61 1014.5
20260905194002 80 89 3.0 8.0 0.00 0.00 0.00 62 1014.6
20260905193502 80 79 3.0 7.0 0.00 0.00 0.00 64 1014.6
20260905193002 80 73 3.0 8.0 0.00 0.00 0.00 63 1014.6
20260905192505 80 78 3.0 9.0 0.00 0.00 0.00 64 1014.6
20260905192502 80 80 4.0 9.0 0.00 0.00 0.00 63 1014.7
20260905192002 80 86 4.0 9.0 0.00 0.00 0.00 62 1014.6
20260905191504 80 88 4.0 9.0 0.00 0.00 0.00 63 1014.7
20260905191502 80 89 3.0 9.0 0.00 0.00 0.00 63 1014.7
20260905191001 80 88 3.0 7.0 0.00 0.00 0.00 63 1014.8
20260905190502 79 88 4.0 10.0 0.00 0.00 0.00 64 1014.7
20260905190001 79 93 4.0 9.0 0.00 0.00 0.00 63 1014.9
20260905185526 79 92 4.0 10.0 0.00 0.00 0.00 62 1014.9
20260905185501 79 90 4.0 10.0 0.00 0.00 0.00 62 1014.9
20260905185023 80 86 4.0 10.0 0.00 0.00 0.00 62 1014.9
20260905185001 80 84 4.0 10.0 0.00 0.00 0.00 63 1014.8
20260905184502 80 83 4.0 8.0 0.00 0.00 0.00 63 1014.9
20260905184001 80 80 4.0 10.0 0.00 0.00 0.00 63 1015.0
20260905183522 80 83 3.0 10.0 0.00 0.00 0.00 62 1015.0
20260905183501 80 84 3.0 10.0 0.00 0.00 0.00 62 1015.0
20260905183026 80 90 3.0 9.0 0.00 0.00 0.00 65 1015.1
20260905183001 80 95 3.0 9.0 0.00 0.00 0.00 64 1015.1
20260905182502 80 92 3.0 9.0 0.00 0.00 0.00 63 1015.1
20260905182005 80 90 3.0 7.0 0.00 0.00 0.00 64 1015.1
20260905182001 80 89 3.0 7.0 0.00 0.00 0.00 65 1015.1
20260905181501 80 89 4.0 8.0 0.00 0.00 0.00 64 1015.0
20260905181002 80 87 4.0 9.0 0.00 0.00 0.00 63 1015.1
20260905180502 81 85 3.0 9.0 0.00 0.00 0.00 62 1015.2
20260905180001 80 81 2.0 7.0 0.00 0.00 0.00 63 1015.0
20260905175502 80 74 2.0 7.0 0.00 0.00 0.00 64 1015.1
20260905175002 80 82 2.0 8.0 0.00 0.00 0.00 65 1015.2
20260905174502 79 86 3.0 9.0 0.00 0.00 0.00 65 1015.2
20260905174001 79 87 4.0 9.0 0.00 0.00 0.00 64 1015.3
20260905173502 79 88 3.0 8.0 0.00 0.00 0.00 63 1015.2
20260905173500 79 88 3.0 8.0 0.00 0.00 0.00 64 1015.2
20260905173023 79 94 2.0 8.0 0.00 0.00 0.00 64 1015.2
20260905173000 79 95 2.0 7.0 0.00 0.00 0.00 63 1015.2
20260905172502 79 91 2.0 7.0 0.00 0.00 0.00 63 1015.3
20260905172500 79 90 2.0 7.0 0.00 0.00 0.00 63 1015.3
20260905172002 80 78 2.0 7.0 0.00 0.00 0.00 63 1015.4
20260905172000 80 77 2.0 7.0 0.00 0.00 0.00 63 1015.4
20260905171502 80 65 2.0 7.0 0.00 0.00 0.00 64 1015.4
20260905171500 80 66 2.0 7.0 0.00 0.00 0.00 64 1015.4
20260905171002 79 68 2.0 7.0 0.00 0.00 0.00 66 1015.5
20260905171000 79 68 2.0 7.0 0.00 0.00 0.00 65 1015.5
20260905170502 79 83 3.0 7.0 0.00 0.00 0.00 65 1015.5
20260905170500 79 84 2.0 7.0 0.00 0.00 0.00 65 1015.5
20260905170004 79 79 2.0 7.0 0.00 0.00 0.00 65 1015.4
20260905170000 79 79 2.0 7.0 0.00 0.00 0.00 67 1015.4
20260905165502 78 67 2.0 8.0 0.00 0.00 0.00 66 1015.4
20260905165500 78 67 2.0 8.0 0.00 0.00 0.00 67 1015.4
20260905165023 78 66 2.0 8.0 0.00 0.00 0.00 68 1015.4
20260905165000 78 68 2.0 8.0 0.00 0.00 0.00 68 1015.3
20260905164526 77 75 2.0 7.0 0.00 0.00 0.00 69 1015.4
20260905164500 77 80 2.0 7.0 0.00 0.00 0.00 69 1015.3
20260905164023 77 90 2.0 7.0 0.00 0.00 0.00 68 1015.4
20260905164000 77 90 3.0 7.0 0.00 0.00 0.00 69 1015.5
20260905163502 77 90 2.0 7.0 0.00 0.00 0.00 69 1015.4
20260905163459 77 88 2.0 7.0 0.00 0.00 0.00 70 1015.5
20260905163002 77 85 2.0 8.0 0.00 0.00 0.00 69 1015.5
20260905162959 76 85 2.0 8.0 0.00 0.00 0.00 71 1015.4
20260905162502 76 90 2.0 8.0 0.00 0.00 0.00 71 1015.4
20260905162459 76 91 3.0 8.0 0.00 0.00 0.00 71 1015.4
20260905162002 76 93 3.0 8.0 0.00 0.00 0.00 71 1015.4
20260905161959 76 91 3.0 8.0 0.00 0.00 0.00 72 1015.4
20260905161523 75 90 3.0 7.0 0.00 0.00 0.00 73 1015.4
20260905161459 75 89 3.0 8.0 0.00 0.00 0.00 73 1015.5
20260905161005 75 87 3.0 8.0 0.00 0.00 0.00 73 1015.4
20260905160959 75 89 3.0 8.0 0.00 0.00 0.00 75 1015.4
20260905160523 75 87 3.0 8.0 0.00 0.00 0.00 73 1015.4
20260905160459 75 86 2.0 8.0 0.00 0.00 0.00 73 1015.4
20260905160023 74 85 2.0 7.0 0.00 0.00 0.00 74 1015.4
20260905155959 74 84 2.0 7.0 0.00 0.00 0.00 73 1015.3
20260905155502 74 79 2.0 5.0 0.00 0.00 0.00 74 1015.3
20260905155459 74 80 2.0 5.0 0.00 0.00 0.00 74 1015.3
20260905155005 74 79 1.0 4.0 0.00 0.00 0.00 75 1015.3
20260905154959 74 76 1.0 4.0 0.00 0.00 0.00 75 1015.3
20260905154523 74 77 2.0 5.0 0.00 0.00 0.00 76 1015.3
20260905154459 74 75 2.0 5.0 0.00 0.00 0.00 76 1015.3
20260905154023 74 74 2.0 6.0 0.00 0.00 0.00 76 1015.2
20260905153959 74 74 2.0 6.0 0.00 0.00 0.00 76 1015.2
20260905153502 74 82 2.0 7.0 0.00 0.00 0.00 76 1015.2
20260905153459 74 86 2.0 7.0 0.00 0.00 0.00 76 1015.2
20260905153001 73 87 2.0 8.0 0.00 0.00 0.00 76 1015.3
20260905152958 73 90 2.0 8.0 0.00 0.00 0.00 76 1015.2
20260905152501 73 81 2.0 8.0 0.00 0.00 0.00 76 1015.1
20260905152458 73 81 2.0 8.0 0.00 0.00 0.00 76 1015.1
20260905152002 73 81 2.0 6.0 0.00 0.01 0.00 76 1015.2
20260905151958 73 79 2.0 6.0 0.00 0.01 0.00 77 1015.1
20260905151502 73 91 1.0 3.0 0.00 0.01 0.00 78 1015.0
20260905151458 73 91 1.0 3.0 0.00 0.01 0.00 78 1015.0
20260905151001 73 86 1.0 4.0 0.00 0.01 0.00 78 1015.0
20260905150958 73 87 2.0 5.0 0.00 0.01 0.00 77 1015.0
20260905150502 72 83 2.0 5.0 0.00 0.02 0.00 78 1015.0
20260905150458 72 82 2.0 5.0 0.00 0.02 0.00 78 1014.9
20260905150005 72 77 1.0 5.0 0.00 0.03 0.00 77 1015.0
20260905145958 72 74 1.0 5.0 0.00 0.03 0.00 78 1015.1
20260905145523 72 76 1.0 5.0 0.00 0.03 0.00 78 1015.0
20260905145458 72 83 1.0 5.0 0.00 0.03 0.00 78 1014.9
20260905145005 72 84 1.0 4.0 0.00 0.04 0.00 78 1014.8
20260905144958 72 84 2.0 4.0 0.00 0.04 0.00 78 1014.9
20260905144502 72 80 2.0 5.0 0.00 0.04 0.00 78 1014.9
20260905144458 72 79 2.0 6.0 0.00 0.04 0.00 78 1014.9
20260905144002 72 81 2.0 6.0 0.00 0.04 0.00 79 1014.7
20260905143958 72 83 2.0 6.0 0.00 0.05 0.00 79 1014.7
20260905143502 72 82 2.0 7.0 0.00 0.05 0.00 79 1014.8
20260905143458 72 80 2.0 7.0 0.00 0.05 0.00 79 1014.8
20260905143002 72 74 2.0 7.0 0.00 0.05 0.00 79 1014.7
20260905142958 72 70 1.0 7.0 0.00 0.05 0.00 79 1014.7
20260905142503 71 69 1.0 6.0 0.00 0.05 0.00 79 1014.7
20260905142458 71 68 1.0 6.0 0.00 0.05 0.00 79 1014.7
20260905142002 71 63 1.0 6.0 0.00 0.06 0.00 79 1014.8
20260905141958 71 66 2.0 6.0 0.00 0.06 0.00 79 1014.8
20260905141502 71 68 1.0 6.0 0.00 0.06 0.00 80 1014.8
20260905141457 71 68 1.0 6.0 0.00 0.06 0.00 79 1014.8
20260905141026 71 80 1.0 6.0 0.00 0.07 0.00 79 1014.8
20260905140958 71 84 1.0 6.0 0.00 0.07 0.00 80 1014.9
20260905140503 71 80 1.0 4.0 0.00 0.07 0.00 80 1015.0
20260905140457 71 80 1.0 4.0 0.00 0.07 0.00 79 1015.0
20260905140023 71 83 1.0 5.0 0.00 0.08 0.00 79 1015.0
20260905135957 71 82 1.0 6.0 0.00 0.08 0.00 79 1015.0
20260905135523 71 77 2.0 6.0 0.00 0.09 0.00 79 1014.9
20260905135457 71 76 2.0 6.0 0.00 0.09 0.00 79 1014.9
20260905135005 71 70 1.0 6.0 0.00 0.09 0.00 80 1014.9
20260905134957 71 73 2.0 5.0 0.00 0.09 0.00 80 1014.7
20260905134503 71 81 1.0 8.0 0.00 0.09 0.00 80 1014.7
20260905134457 71 84 1.0 8.0 0.00 0.10 0.00 80 1014.7
20260905134026 71 83 1.0 8.0 0.00 0.10 0.00 79 1014.7
20260905133957 71 83 1.0 8.0 0.00 0.10 0.00 79 1014.5
20260905133502 71 81 1.0 5.0 0.00 0.10 0.00 79 1014.9
20260905133457 71 79 1.0 5.0 0.00 0.10 0.00 79 1014.8
20260905133002 71 97 0.0 3.0 0.00 0.10 0.00 80 1014.9
20260905132957 71 97 0.0 3.0 0.00 0.10 0.00 80 1014.9
20260905132503 70 97 0.0 4.0 0.00 0.10 0.00 80 1014.9
20260905132457 70 91 0.0 6.0 0.00 0.10 0.00 80 1014.9
20260905132002 70 84 1.0 6.0 0.00 0.10 0.00 81 1014.9
20260905131957 70 83 1.0 6.0 0.00 0.10 0.00 81 1014.9
20260905131502 70 75 1.0 6.0 0.00 0.10 0.00 80 1014.9
20260905131457 70 75 1.0 5.0 0.00 0.10 0.00 80 1014.9
20260905131002 70 75 1.0 5.0 0.00 0.10 0.00 81 1014.9
20260905130957 70 74 0.0 5.0 0.00 0.10 0.00 81 1014.9
20260905130524 70 78 0.0 3.0 0.00 0.10 0.00 81 1014.7
20260905130457 70 77 0.0 3.0 0.00 0.10 0.00 81 1014.7
20260905130002 70 0 0.0 0.0 0.00 0.10 0.00 82 1014.6
20260905125957 70 0 0.0 0.0 0.00 0.10 0.00 81 1014.6
20260905125523 69 0 0.0 0.0 0.00 0.10 0.00 82 1014.6
20260905125457 69 0 0.0 0.0 0.00 0.10 0.00 82 1014.6
20260905125005 69 80 0.0 4.0 0.00 0.10 0.00 82 1014.6
20260905124957 69 85 0.0 4.0 0.00 0.10 0.00 82 1014.7
20260905124502 69 90 0.0 4.0 0.00 0.10 0.00 83 1014.9
20260905124456 69 90 1.0 4.0 0.00 0.10 0.00 83 1014.8
20260905124005 69 87 1.0 4.0 0.00 0.10 0.00 83 1014.8
20260905123956 69 85 1.0 4.0 0.00 0.10 0.00 83 1014.8
20260905123502 69 75 1.0 5.0 0.00 0.10 0.00 83 1014.8
20260905123456 69 76 1.0 5.0 0.00 0.10 0.00 83 1014.8
20260905123002 69 78 1.0 5.0 0.00 0.10 0.00 84 1014.8
20260905122956 69 79 1.0 8.0 0.00 0.10 0.00 83 1014.8
20260905122502 69 82 1.0 8.0 0.00 0.11 0.00 84 1014.7
20260905122456 69 81 1.0 8.0 0.00 0.11 0.00 84 1014.7
20260905122005 69 82 1.0 8.0 0.00 0.11 0.00 84 1014.6
20260905121956 69 77 1.0 6.0 0.00 0.11 0.00 84 1014.5
20260905121502 69 77 1.0 6.0 0.00 0.11 0.00 85 1014.6
20260905121456 69 81 1.0 6.0 0.00 0.11 0.00 85 1014.6
20260905121026 69 75 2.0 6.0 0.00 0.11 0.00 85 1014.5
20260905120956 69 75 2.0 6.0 0.00 0.11 0.00 85 1014.5
20260905120503 69 68 2.0 5.0 0.00 0.11 0.00 85 1014.5
20260905120456 69 63 2.0 5.0 0.00 0.11 0.00 85 1014.5
20260905120002 69 68 2.0 5.0 0.00 0.11 0.00 85 1014.4
20260905115956 69 70 2.0 5.0 0.00 0.11 0.00 85 1014.4
20260905115502 69 78 1.0 5.0 0.00 0.11 0.00 85 1014.5
20260905115456 69 78 1.0 5.0 0.00 0.11 0.00 85 1014.5
20260905115005 69 79 2.0 8.0 0.00 0.11 0.00 85 1014.6
20260905114956 69 79 2.0 8.0 0.00 0.11 0.00 85 1014.6
20260905114503 69 81 1.0 8.0 0.00 0.11 0.00 85 1014.5
20260905114456 69 82 1.0 8.0 0.00 0.11 0.00 85 1014.5
20260905114006 69 80 1.0 6.0 0.00 0.11 0.00 85 1014.4
20260905113956 69 79 1.0 6.0 0.00 0.11 0.00 86 1014.4
20260905113502 69 80 2.0 5.0 0.00 0.11 0.00 85 1014.4
20260905113456 69 78 2.0 5.0 0.00 0.11 0.00 85 1014.4
20260905113023 69 75 2.0 8.0 0.00 0.11 0.00 86 1014.3
20260905112956 69 72 2.0 8.0 0.00 0.11 0.00 85 1014.3
20260905112503 69 65 2.0 8.0 0.00 0.11 0.00 85 1014.4
20260905112456 69 65 2.0 8.0 0.00 0.11 0.00 85 1014.4
20260905112002 69 73 1.0 6.0 0.00 0.11 0.00 86 1014.3
20260905111955 69 77 1.0 6.0 0.00 0.11 0.00 86 1014.3
20260905111502 69 72 2.0 6.0 0.00 0.11 0.00 85 1014.2
20260905111455 69 70 2.0 6.0 0.00 0.11 0.00 85 1014.2
20260905111023 69 67 2.0 6.0 0.00 0.11 0.00 85 1014.3
20260905110955 69 66 2.0 6.0 0.00 0.11 0.00 85 1014.3
20260905110524 69 66 2.0 5.0 0.00 0.11 0.00 85 1014.2
20260905110455 69 66 2.0 5.0 0.00 0.11 0.00 85 1014.3
20260905110002 69 62 2.0 6.0 0.00 0.11 0.00 86 1014.3
20260905105955 69 61 2.0 6.0 0.00 0.11 0.00 85 1014.3
20260905105523 69 57 2.0 6.0 0.00 0.11 0.00 86 1014.3
20260905105455 69 61 2.0 6.0 0.00 0.11 0.00 86 1014.3
20260905105002 69 66 2.0 5.0 0.00 0.11 0.00 86 1014.3
20260905104955 69 67 2.0 5.0 0.00 0.11 0.00 86 1014.3
20260905104502 69 71 2.0 5.0 0.00 0.11 0.00 87 1014.3
20260905104455 69 70 2.0 5.0 0.00 0.11 0.00 87 1014.3
20260905104023 69 70 1.0 4.0 0.00 0.11 0.00 87 1014.3
20260905103955 69 63 1.0 4.0 0.00 0.11 0.00 88 1014.4
20260905103502 69 63 0.0 2.0 0.00 0.11 0.00 88 1014.5
20260905103455 69 62 0.0 2.0 0.00 0.11 0.00 88 1014.5
20260905103003 69 29 0.0 2.0 0.00 0.11 0.00 88 1014.6
20260905102955 69 29 0.0 2.0 0.00 0.11 0.00 88 1014.6
20260905102502 69 14 0.0 2.0 0.00 0.11 0.00 87 1014.3
20260905102455 69 1 0.0 2.0 0.00 0.11 0.00 87 1014.3
20260905102023 69 0 0.0 0.0 0.00 0.11 0.00 87 1014.3
20260905101955 69 0 0.0 0.0 0.00 0.11 0.00 87 1014.3
20260905101503 69 0 0.0 0.0 0.00 0.11 0.00 87 1014.2
20260905101455 69 0 0.0 0.0 0.00 0.11 0.00 87 1014.2
20260905101002 69 0 0.0 0.0 0.00 0.11 0.00 87 1014.3
20260905100955 69 0 0.0 0.0 0.00 0.11 0.00 87 1014.3
20260905100527 69 0 0.0 0.0 0.00 0.11 0.00 87 1014.2
20260905100454 69 0 0.0 0.0 0.00 0.11 0.00 87 1014.2
20260905100002 69 0 0.0 0.0 0.00 0.11 0.00 87 1014.3
20260905095954 69 0 0.0 0.0 0.00 0.11 0.00 87 1014.3
20260905095502 69 0 0.0 0.0 0.00 0.11 0.00 87 1014.3
20260905095454 69 0 0.0 0.0 0.00 0.11 0.00 87 1014.3
20260905095003 69 0 0.0 0.0 0.00 0.11 0.00 87 1014.4
20260905094954 69 0 0.0 0.0 0.00 0.11 0.00 87 1014.4
20260905094503 69 0 0.0 0.0 0.00 0.11 0.00 87 1014.4
20260905094454 69 0 0.0 0.0 0.00 0.11 0.00 87 1014.4
20260905094002 69 0 0.0 0.0 0.00 0.11 0.00 87 1014.4
20260905093954 69 0 0.0 0.0 0.00 0.11 0.00 87 1014.4
20260905093503 69 0 0.0 0.0 0.00 0.11 0.00 87 1014.4
20260905093454 69 0 0.0 0.0 0.00 0.11 0.00 87 1014.3
20260905093002 69 355 0.0 1.0 0.00 0.11 0.00 87 1014.3
20260905092954 69 355 0.0 1.0 0.00 0.11 0.00 87 1014.3
20260905092503 69 355 0.0 2.0 0.00 0.11 0.00 87 1014.3
20260905092454 69 355 0.0 2.0 0.00 0.11 0.00 87 1014.3
20260905092003 69 355 0.0 2.0 0.00 0.11 0.00 87 1014.2
20260905091954 69 355 0.0 2.0 0.00 0.11 0.00 87 1014.2
20260905091502 69 355 0.0 1.0 0.00 0.11 0.00 87 1014.0
20260905091454 69 355 0.0 1.0 0.00 0.11 0.00 87 1014.0
20260905091003 69 18 0.0 3.0 0.00 0.11 0.00 87 1014.0
20260905090954 69 18 0.0 3.0 0.00 0.11 0.00 87 1014.0
20260905090503 69 44 0.0 3.0 0.00 0.11 0.00 87 1013.8
20260905090454 69 62 0.0 3.0 0.00 0.11 0.00 87 1013.8
20260905090023 69 85 1.0 3.0 0.00 0.11 0.00 87 1013.7
20260905085954 69 85 1.0 3.0 0.00 0.11 0.00 87 1013.7
20260905085503 69 85 1.0 3.0 0.00 0.11 0.00 87 1013.5
20260905085454 69 85 1.0 3.0 0.00 0.11 0.00 87 1013.5
20260905085003 69 86 1.0 3.0 0.00 0.11 0.00 87 1013.3
20260905084954 69 86 1.0 3.0 0.00 0.11 0.00 87 1013.3
20260905084523 69 87 0.0 3.0 0.00 0.11 0.00 87 1013.3
20260905084454 69 88 0.0 3.0 0.00 0.11 0.00 87 1013.4
20260905084003 69 88 0.0 3.0 0.00 0.11 0.00 87 1013.3
20260905083954 69 88 0.0 3.0 0.00 0.11 0.00 87 1013.2
20260905083503 69 88 0.0 3.0 0.00 0.11 0.00 87 1013.2
20260905083453 69 88 0.0 3.0 0.00 0.11 0.00 87 1013.3
20260905083002 69 88 0.0 2.0 0.00 0.11 0.00 87 1013.2
20260905082953 69 88 0.0 2.0 0.00 0.11 0.00 87 1013.4
20260905082502 69 88 0.0 2.0 0.00 0.11 0.00 87 1013.5
20260905082453 69 88 0.0 2.0 0.00 0.11 0.00 87 1013.5
20260905082024 69 88 0.0 2.0 0.00 0.11 0.00 88 1013.5
20260905081953 69 88 0.0 2.0 0.00 0.11 0.00 88 1013.7
20260905081524 69 88 0.0 2.0 0.00 0.11 0.00 88 1013.6
20260905081453 69 88 0.0 2.0 0.00 0.11 0.00 88 1013.5
20260905081027 69 0 0.0 0.0 0.00 0.11 0.00 88 1013.4
20260905080953 69 0 0.0 0.0 0.00 0.11 0.00 88 1013.5
20260905080503 69 0 0.0 0.0 0.00 0.11 0.00 88 1013.4
20260905080453 70 0 0.0 0.0 0.00 0.11 0.00 88 1013.4
20260905080003 70 0 0.0 0.0 0.00 0.11 0.00 88 1013.5
20260905075953 70 0 0.0 0.0 0.00 0.11 0.00 88 1013.5
20260905075505 70 0 0.0 0.0 0.00 0.11 0.00 88 1013.7
20260905075453 70 0 0.0 0.0 0.00 0.11 0.00 88 1013.7
20260905075003 70 88 0.0 2.0 0.00 0.11 0.00 88 1013.5
20260905074953 70 88 0.0 2.0 0.00 0.11 0.00 88 1013.5
20260905074503 70 88 0.0 2.0 0.00 0.11 0.00 88 1013.5
20260905074453 70 88 0.0 2.0 0.00 0.11 0.00 88 1013.5
20260905074002 70 88 0.0 2.0 0.00 0.11 0.00 89 1013.6
20260905073953 70 88 0.0 2.0 0.00 0.11 0.00 89 1013.6
20260905073506 70 88 0.0 2.0 0.00 0.11 0.00 89 1013.8
20260905073453 70 88 0.0 2.0 0.00 0.11 0.00 89 1013.7
20260905073006 70 88 1.0 4.0 0.00 0.11 0.00 89 1013.5
20260905072953 70 89 1.0 4.0 0.00 0.11 0.00 89 1013.6
20260905072502 70 87 1.0 4.0 0.00 0.11 0.00 89 1013.5
20260905072453 70 86 1.0 4.0 0.00 0.11 0.00 89 1013.5
20260905072024 70 77 1.0 3.0 0.00 0.11 0.00 89 1013.4
20260905071952 70 75 1.0 3.0 0.00 0.11 0.00 89 1013.5
20260905071524 70 69 1.0 3.0 0.00 0.11 0.00 89 1013.4
20260905071452 70 69 1.0 3.0 0.00 0.11 0.00 90 1013.4
20260905071005 70 67 0.0 3.0 0.00 0.11 0.00 90 1013.3
20260905070952 70 66 0.0 3.0 0.00 0.11 0.00 90 1013.3
20260905070503 70 70 1.0 6.0 0.00 0.11 0.00 90 1013.2
20260905070452 70 70 1.0 6.0 0.00 0.11 0.00 90 1013.3
20260905070024 70 69 1.0 6.0 0.00 0.11 0.00 90 1013.1
20260905065952 70 69 2.0 6.0 0.00 0.11 0.00 90 1013.1
20260905065502 70 63 1.0 4.0 0.00 0.11 0.00 91 1013.0
20260905065452 70 64 1.0 4.0 0.00 0.11 0.00 91 1013.0
20260905065002 70 70 1.0 4.0 0.00 0.11 0.00 91 1013.1
20260905064952 70 72 1.0 4.0 0.00 0.11 0.00 91 1013.0
20260905064502 70 79 1.0 4.0 0.00 0.11 0.00 91 1012.9
20260905064452 70 80 1.0 4.0 0.00 0.11 0.00 91 1013.1
20260905064024 70 81 0.0 3.0 0.00 0.11 0.00 91 1013.0
20260905063952 70 78 0.0 3.0 0.00 0.11 0.00 91 1013.1
20260905063502 70 75 0.0 3.0 0.00 0.11 0.00 91 1013.2
20260905063452 70 74 0.0 3.0 0.00 0.11 0.00 92 1013.2
20260905063003 70 65 0.0 2.0 0.00 0.11 0.00 91 1013.3
20260905062952 70 65 0.0 1.0 0.00 0.11 0.00 92 1013.3
20260905062503 70 65 0.0 1.0 0.00 0.11 0.00 92 1013.4
20260905062452 70 65 0.0 1.0 0.00 0.11 0.00 92 1013.4
20260905062006 70 65 0.0 1.0 0.00 0.11 0.00 92 1013.6
20260905061952 70 65 0.0 1.0 0.00 0.11 0.00 92 1013.6
20260905061503 70 65 0.0 2.0 0.00 0.11 0.00 92 1013.6
20260905061452 70 65 0.0 2.0 0.00 0.11 0.00 92 1013.7
20260905061003 70 65 0.0 2.0 0.00 0.11 0.00 92 1013.7
20260905060952 70 65 0.0 2.0 0.00 0.11 0.00 92 1013.7
20260905060503 70 65 0.0 2.0 0.00 0.11 0.00 92 1013.8
20260905060452 70 65 0.0 2.0 0.00 0.11 0.00 92 1013.8
20260905060003 70 65 0.0 2.0 0.00 0.11 0.00 92 1013.9
20260905055951 70 65 0.0 2.0 0.00 0.11 0.00 92 1014.0
20260905055506 70 0 0.0 0.0 0.00 0.11 0.00 92 1014.0
20260905055451 70 0 0.0 0.0 0.00 0.11 0.00 91 1014.1
20260905055003 70 0 0.0 0.0 0.00 0.11 0.00 92 1014.0
20260905054951 70 0 0.0 0.0 0.00 0.11 0.00 92 1014.0
20260905054506 70 0 0.0 0.0 0.00 0.11 0.00 91 1014.0
20260905054451 70 0 0.0 0.0 0.00 0.11 0.00 91 1013.9
20260905054027 70 0 0.0 0.0 0.00 0.11 0.00 91 1013.8
20260905053951 70 0 0.0 0.0 0.00 0.11 0.00 91 1013.9
20260905053502 70 0 0.0 0.0 0.00 0.11 0.00 91 1013.7
20260905053451 70 0 0.0 0.0 0.00 0.11 0.00 91 1013.8
20260905053003 70 0 0.0 0.0 0.00 0.11 0.00 91 1013.7
20260905052951 70 0 0.0 0.0 0.00 0.11 0.00 91 1013.7
20260905052503 70 0 0.0 0.0 0.00 0.11 0.00 91 1013.6
20260905052451 70 0 0.0 0.0 0.00 0.11 0.00 91 1013.6
20260905052003 70 0 0.0 0.0 0.00 0.11 0.00 91 1013.6
20260905051951 70 0 0.0 0.0 0.00 0.11 0.00 91 1013.6
20260905051503 70 0 0.0 0.0 0.00 0.11 0.00 90 1013.7
20260905051451 70 0 0.0 0.0 0.00 0.11 0.00 90 1013.7
20260905051003 70 0 0.0 0.0 0.00 0.11 0.00 90 1013.9
20260905050951 70 0 0.0 0.0 0.00 0.11 0.00 90 1013.9
20260905050502 70 0 0.0 0.0 0.00 0.11 0.00 90 1013.9
20260905050451 70 0 0.0 0.0 0.00 0.11 0.00 90 1013.9
20260905050006 70 0 0.0 0.0 0.00 0.11 0.00 90 1014.0
20260905045951 70 0 0.0 0.0 0.00 0.11 0.00 90 1014.0
20260905045524 70 0 0.0 0.0 0.00 0.11 0.00 90 1014.0
20260905045451 70 0 0.0 0.0 0.00 0.11 0.00 90 1014.0
20260905045024 70 0 0.0 0.0 0.00 0.11 0.00 90 1014.0
20260905044951 70 0 0.0 0.0 0.00 0.11 0.00 90 1014.0
20260905044503 71 0 0.0 0.0 0.00 0.11 0.00 90 1013.9
20260905044450 71 0 0.0 0.0 0.00 0.11 0.00 90 1014.0
20260905044003 71 0 0.0 0.0 0.00 0.11 0.00 89 1014.0
20260905043950 71 0 0.0 0.0 0.00 0.11 0.00 89 1014.1
20260905043527 71 0 0.0 0.0 0.00 0.11 0.00 89 1014.0
20260905043450 71 0 0.0 0.0 0.00 0.11 0.00 89 1014.0
20260905043003 71 0 0.0 0.0 0.00 0.11 0.00 89 1014.0
20260905042950 71 0 0.0 0.0 0.00 0.11 0.00 89 1014.1
20260905042504 71 0 0.0 0.0 0.00 0.11 0.00 89 1014.0
20260905042450 71 0 0.0 0.0 0.00 0.11 0.00 89 1014.0
20260905042003 71 65 0.0 2.0 0.00 0.11 0.00 89 1014.1
20260905041950 71 65 0.0 2.0 0.00 0.11 0.00 89 1014.1
20260905041503 71 65 0.0 2.0 0.00 0.11 0.00 89 1014.1
20260905041450 71 65 0.0 2.0 0.00 0.11 0.00 89 1014.1
20260905041003 72 39 0.0 2.0 0.00 0.11 0.00 89 1014.1
20260905040950 72 27 0.0 2.0 0.00 0.11 0.00 89 1014.1
20260905040503 72 11 0.0 2.0 0.00 0.11 0.00 89 1014.2
20260905040450 72 10 0.0 2.0 0.00 0.11 0.00 89 1014.2
20260905040024 72 5 0.0 2.0 0.00 0.11 0.00 89 1014.3
20260905035950 72 5 0.0 2.0 0.00 0.11 0.11 89 1014.3
20260905035503 72 5 0.0 2.0 0.00 0.11 0.11 89 1014.3
20260905035450 72 5 0.0 2.0 0.00 0.11 0.11 89 1014.3
20260905035003 72 6 0.0 2.0 0.00 0.11 0.11 89 1014.3
20260905034950 72 23 0.0 1.0 0.00 0.11 0.11 89 1014.3
20260905034503 72 23 0.0 1.0 0.00 0.11 0.11 89 1014.3
20260905034450 72 22 0.0 1.0 0.00 0.11 0.11 89 1014.3
20260905034024 72 22 0.0 2.0 0.00 0.11 0.11 89 1014.5
20260905033950 72 22 0.0 2.0 0.00 0.11 0.11 89 1014.5
20260905033527 72 22 1.0 3.0 0.00 0.11 0.11 89 1014.5
20260905033420 72 22 1.0 3.0 0.00 0.11 0.11 89 1014.5
20260905033024 72 22 1.0 3.0 0.00 0.11 0.11 89 1014.6
20260905032920 72 22 1.0 3.0 0.00 0.11 0.11 89 1014.6
20260905032503 72 25 1.0 3.0 0.00 0.11 0.11 89 1014.6
20260905032420 72 25 1.0 3.0 0.00 0.11 0.11 89 1014.6
20260905032006 72 29 1.0 3.0 0.00 0.11 0.11 89 1014.5
20260905031920 72 36 1.0 4.0 0.00 0.11 0.11 89 1014.6